Flag for Poland Weather past 2 weeks in Tarnów, Poland

Now
55 °F

Clear.


Feels Like: 55 °F
Forecast: 49 / 74 °F
Wind: No wind

Location: Tarnow

Current Time: Sep 19, 2014 at 12:23:07 AM

Latest Report: Sep 18, 2014 at 11:00 PM


Visibility: 13 mi

Pressure: 30.15 "Hg

Humidity: 78%

Dew point: 49 °F

Location of TarnówLocation

Historic Weather in Tarnów — Graph

°F

Tarnów temperature yesterday

Maximum temperature yesterday: 73 °F (at 2:00 PM)
Minimum temperature yesterday: 45 °F (at 7:00 AM)
Average temperature yesterday: 60 °F

Past Weeks' High & Low Weather Summary

 TemperatureHumidityPressure
High80 °F (Sep 12, 3:00 PM)100% (Sep 12, 3:00 AM)30.22 "Hg (Sep 12, 3:00 AM)
Low45 °F (Sep 18, 7:00 AM)36% (Sep 18, 2:00 PM)29.92 "Hg (Sep 6, 4:00 PM)
Average63 °F78%30.05 "Hg
* Reported Sep 3 10:00 PM — Sep 18 10:00 PM, Tarnów, Weather by CustomWeather, © 2014

Note: Actual official high and low records may vary slightly from our data, if they occured in-between our weather recording intervals... More about our weather records

Advertising

Tarnów weather history for previous 24 hours

 ConditionsComfort  
Time TempWeatherWind HumidityBarometerVisibility
10:00 PM
Sep 18
57 °FClear.1 mph75%30.15 "Hg11 mi
9:00 PM59 °FClear.1 mph68%30.15 "Hg11 mi
8:00 PM62 °FPassing clouds.2 mph62%30.14 "Hg8 mi
5:00 PM72 °FPassing clouds.3 mph43%30.11 "Hg19 mi
4:00 PM72 °FPassing clouds.3 mph40%30.11 "Hg17 mi
3:00 PM73 °FSunny.3 mph40%30.11 "Hg19 mi
2:00 PM73 °FSunny.3 mph36%30.11 "Hg22 mi
1:00 PM73 °FSunny.3 mph40%30.13 "Hg16 mi
12:00 PM71 °FSunny.2 mph46%30.14 "Hg22 mi
11:00 AM69 °FSunny.3 mph58%30.15 "Hg14 mi
10:00 AM64 °FSunny.2 mph62%30.17 "Hg16 mi
9:00 AM60 °FSunny.1 mph72%30.16 "Hg12 mi
8:00 AM53 °FSunny.1 mph97%30.16 "Hg9 mi
7:00 AM45 °FFog.1 mph95%30.17 "Hg6 mi
6:00 AM45 °FFog.No wind92%30.15 "Hg4 mi
5:00 AM47 °FClear.No wind90%30.15 "Hg5 mi
4:00 AM50 °FClear.1 mph86%30.14 "Hg7 mi
3:00 AM51 °FClear.1 mph84%30.14 "Hg9 mi
2:00 AM53 °FClear.1 mph82%30.14 "Hg9 mi
1:00 AM53 °FClear.1 mph81%30.15 "Hg9 mi
12:00 AM54 °FClear.1 mph78%30.14 "Hg9 mi
Weather by CustomWeather, © 2014

See weather overviewHow to use our weather pages